Location: Rybnik
(50.1167°N, 18.5333°E)
Time: 00:33:52
(UTC+02:00)

ISS - Visible Passes

Search period start: 19 May 2024 00:00
Search period end: 29 May 2024 00:00
Orbit: 410 x 414 km, 51.6° (Epoch: 18 May)

Date Brightness Start Highest point End Pass type
(mag) Time Alt. Az. Time Alt. Az. Time Alt. Az.
19 May -3.9 22:38:47 10° WNW 22:42:08 85° SSW 22:43:47 27° ESE visible
20 May -1.4 00:15:45 10° W 00:16:34 15° W 00:16:34 15° W visible
20 May -3.7 21:48:53 10° WNW 21:52:14 78° NNE 21:55:34 10° E visible
20 May -2.8 23:25:39 10° W 23:28:20 33° SW 23:28:20 33° SW visible
21 May -3.5 22:35:38 10° WNW 22:38:53 51° SSW 22:40:05 32° SSE visible
22 May -3.8 21:45:37 10° WNW 21:48:57 71° SSW 21:51:49 13° ESE visible
22 May -1.8 23:22:48 10° W 23:24:36 17° SW 23:24:36 17° SW visible
23 May -2.5 22:32:26 10° W 22:35:19 27° SW 22:36:18 23° S visible
24 May -3.1 21:42:13 10° W 21:45:21 40° SSW 21:48:00 13° SE visible
25 May -1.6 22:29:36 10° WSW 22:31:23 14° SW 22:32:28 12° SSW visible
26 May -2.0 21:38:50 10° W 21:41:26 21° SW 21:44:00 10° SSE visible
28 May -1.1 21:36:33 10° SW 21:37:09 10° SW 21:37:44 10° SW visible
